#timestamp,LO_Frequency,Hit 
1498370415.3,286047037.4,N
1498370435.1,286047033.1,N
1498370455.9,286047033.1,N
1498370475.7,286047025.9,N
1498370495.5,286047024.2,N
1498370515.4,286047027.1,N
1498370535.2,286047021.6,N
1498370555.0,286047016.2,N
1498370555.9,286047016.2,N
1498370575.8,286047024.9,N
1498370595.6,286047019.3,N
1498370615.4,286047009.9,N
1498370635.3,286047005.1,N
1498370655.1,286047000.2,N
1498370656.0,286047000.2,N
1498370675.8,286046998.0,N
1498370695.6,286046992.9,N
1498370715.5,286046990.7,N
1498370735.3,286046994.3,N
1498370755.1,286046992.7,N
1498370775.9,286046994.1,N
1498370795.7,286047003.2,N
1498370815.5,286047011.2,N
1498370835.4,286047006.9,N
1498370855.2,286047005.3,N
1498370875.0,286047009.9,N
1498370875.9,286047009.9,N
1498370895.8,286047014.6,N
1498370915.6,286047012.9,N
1498370935.4,286047013.4,N
1498370955.3,286047011.7,N
1498370975.1,286047008.3,N
1498370976.0,286047008.3,N
1498370995.8,286047006.7,N
1498371015.6,286047004.2,N
1498371035.5,286046998.2,N
1498371055.3,286046998.7,N
1498371075.1,286046998.2,N
1498371095.9,286047004.4,N
1498371115.7,286047007.3,N
1498371135.5,286047006.5,N
1498371155.4,286047006.9,N
1498371175.2,286047005.9,N
1498371195.0,286047004.6,N
1498371195.9,286047004.6,N
1498371215.8,286047009.8,N
1498371235.6,286047016.7,N
1498371255.4,286047008.7,N
1498371275.2,286047000.1,N
1498371295.1,286047004.1,N
1498371296.0,286047004.1,N
1498371315.8,286047007.2,N
1498371335.6,286047002.9,N
1498371355.5,286046999.1,N
1498371375.3,286046996.0,N
1498371395.1,286046990.3,N
1498371415.9,286046985.4,N
1498371435.7,286046990.9,N
1498371455.5,286046990.0,N
1498371475.4,286046987.2,N
1498371495.2,286046983.5,N
1498371515.0,286046977.8,N
1498371515.9,286046977.8,N
1498371535.8,286046978.6,N
1498371555.6,286046974.5,N
1498371575.4,286046980.3,N
1498371595.2,286046983.5,N
1498371615.1,286046992.3,N
1498371616.0,286046992.3,N
1498371635.8,286046994.7,N
1498371655.6,286046990.0,N
1498371675.5,286046988.7,N
1498371695.3,286046993.9,N
1498371715.1,286047010.4,N
1498371735.9,286047001.2,N
1498371755.7,286047004.7,N
1498371775.5,286046998.7,N
1498371795.4,286046998.4,N
1498371815.2,286046993.9,N
1498371835.0,286046989.2,N
1498371835.9,286046989.2,N
1498371855.8,286046985.3,N
1498371875.6,286046985.5,N
1498371895.4,286046989.8,N
1498371915.2,286046994.3,N
1498371935.1,286047005.4,N
1498371936.0,286047005.4,N
1498371955.8,286047002.5,N
1498371975.6,286047004.1,N
1498371995.5,286047005.0,N
1498372015.3,286047000.7,N
1498372035.1,286046988.7,N
1498372055.9,286046984.4,N
1498372075.7,286046976.3,N
1498372095.5,286046967.7,N
1498372115.4,286046969.9,N
1498372135.2,286046973.3,N
1498372155.0,286046973.4,N
1498372155.9,286046973.4,N
1498372175.8,286046981.9,N
1498372195.6,286046982.5,N
1498372215.4,286046988.6,N
1498372235.2,286046982.8,N
1498372255.1,286046979.5,N
1498372256.0,286046979.5,N
1498372275.8,286046981.2,N
1498372295.6,286046984.6,N
1498372315.5,286046985.2,N
1498372335.3,286046989.5,N
1498372355.1,286046984.4,N
1498372375.9,286046979.6,N
1498372395.7,286046978.4,N
1498372415.5,286046981.8,N
1498372435.4,286046985.1,N
1498372455.2,286046979.7,N
1498372475.0,286046978.4,N
1498372475.9,286046978.4,N
1498372495.8,286046974.8,N
1498372515.6,286046972.9,N
1498372535.4,286046965.8,N
1498372555.3,286046960.6,N
1498372575.1,286046959.3,N
1498372576.0,286046959.3,N
1498372595.8,286046955.6,N
1498372615.6,286046957.9,N
1498372635.5,286046959.7,N
1498372655.3,286046970.5,N
1498372675.1,286046979.2,N
1498372695.9,286046979.6,N
1498372715.7,286046982.1,N
1498372735.5,286046974.1,N
1498372755.4,286046970.6,N
1498372775.2,286046965.3,N
1498372795.0,286046960.1,N
1498372795.9,286046960.1,N
1498372815.8,286046957.1,N
1498372835.6,286046950.4,N
1498372855.4,286046942.4,N
1498372875.3,286046940.0,N
1498372895.1,286046938.8,N
1498372896.0,286046938.8,N
1498372915.8,286046936.5,N
1498372935.7,286046937.1,N
1498372955.5,286046939.1,N
1498372975.3,286046940.9,N
1498372995.1,286046946.3,N
1498373015.9,286046949.9,N
1498373035.7,286046944.5,N
1498373055.5,286046942.3,N
1498373075.4,286046945.8,N
1498373095.2,286046945.3,N
1498373115.0,286046946.3,N
1498373115.9,286046946.3,N
1498373135.8,286046953.1,N
1498373155.6,286046950.5,N
1498373175.4,286046951.5,N
1498373195.3,286046954.8,N
1498373215.1,286046948.1,N
1498373216.0,286046948.1,N
1498373235.8,286046941.2,N
1498373255.7,286046936.9,N
1498373275.5,286046931.5,N
1498373295.3,286046929.0,N
1498373315.1,286046927.8,N
1498373335.9,286046926.4,N
1498373355.7,286046924.2,N
1498373375.5,286046916.9,N
1498373395.4,286046917.4,N
1498373415.2,286046918.6,N
1498373435.0,286046921.1,N
1498373435.9,286046921.1,N
1498373455.8,286046921.4,N
1498373475.6,286046922.0,N
1498373495.4,286046924.1,N
1498373515.3,286046919.1,N
1498373535.1,286046916.3,N
1498373536.0,286046916.3,N
1498373555.8,286046914.1,N
1498373575.7,286046912.6,N
1498373595.5,286046908.3,N
1498373615.3,286046902.9,N
1498373635.2,286046903.4,N
1498373655.9,286046901.7,N
1498373675.7,286046900.2,N
1498373695.5,286046901.0,N
1498373715.4,286046907.3,N
1498373735.2,286046902.7,N
1498373755.0,286046893.7,N
1498373755.9,286046893.7,N
1498373775.8,286046889.0,N
1498373795.6,286046888.3,N
1498373815.4,286046885.3,N
1498373835.3,286046883.6,N
1498373855.1,286046883.8,N
1498373856.0,286046883.8,N
1498373875.8,286046886.1,N
1498373895.7,286046886.4,N
1498373915.5,286046886.2,N
1498373935.3,286046891.2,N
1498373955.2,286046895.1,N
1498373975.9,286046900.3,N
1498373995.7,286046906.3,N
